Location: *
(46.4833°N, 7.6667°E)
Time: 21:14:45
(UTC+00:00)

STARLINK-80 - Pass Details

Date: 27 February 2020
Orbit: 490 x 494 km, 53.0° (Epoch: 29 March)

Event Time Altitude Azimuth Distance (km) Brightness Sun altitude
Rises 17:38:38 0° 296° (WNW) 2,582 8.2 -5.4°
Reaches altitude 10° 17:40:56 10° 305° (NW) 1,698 6.9 -5.8°
Maximum altitude 17:44:30 36° 13° (NNE) 810 4.3 -6.5°
Drops below altitude 10° 17:48:04 10° 81° (E) 1,694 5.4 -7.1°
Enters shadow 17:48:15 - 82° (E) 1,764 5.5 -7.1°
